Location: Unspecified
(0.0000°N, 0.0000°E)
Time: 02:03:31
(UTC+00:00)

S-56A Canister/Altair - Pass Details

Date: 04 October 2020
Orbit: 633 x 2499 km, 38.9° (Epoch: 25 October)

Event Time Altitude Azimuth Distance (km) Brightness Sun altitude
Rises 20:29:23 0° 317° (NW) 5,349 12.2 -40.1°
Reaches altitude 10° 20:33:25 10° 321° (NW) 4,066 11.5 -41.1°
Enters shadow 20:38:56 32° 332° (NNW) 2,334 10.0 -42.4°
